Terminal Aerodrome Forecast
Issued by NWS Aberdeen, SD

Home | Current Version | Previous Version | Text Only | Print | Product List | Glossary On
Versions: 1 2 3 4 5 6 7 8 9 10 11 12 13 14 15 16 17 18 19 20 21 22 23 24 25 26 27 28 29 30 31 32 33 34 35 36 37 38 39 40 41 42 43 44 45 46 47 48 49 50
000
FTUS43 KABR 230800 AAB
TAFABR
TAF AMD
KABR 230854Z 2309/2406 04011KT P6SM VCSH BKN007 OVC100
      TEMPO 2309/2311 -SHRA SCT007 BKN060 OVC080
     FM231100 03010KT P6SM OVC010
     FM231200 03010KT 4SM SHRA BR VCTS BKN007 OVC040CB
     FM231800 08020G30KT P6SM VCSH BKN015 OVC050
     FM232300 12013KT P6SM VCTS OVC050CB=

USA.gov is the U.S. government's official web portal to all federal, state and local government web resources and services.